Change the Weather History Date:

Wednesday, September 4, 2013

  Actual Average Record
Temperature  
Mean Temperature 70 °F -  
Max Temperature 85 °F 77 °F 93 °F (2007)
Min Temperature 54 °F 54 °F 1 °F (2004)
Cooling Degree Days 4    
Growing Degree Days 20 (Base 50)    
Moisture  
Dew Point 63 °F    
Average Humidity 79    
Maximum Humidity 99    
Minimum Humidity 54    
Precipitation  
Precipitation 0.00 in - - ()
Sea Level Pressure  
Sea Level Pressure 30.10 in    
Wind  
Wind Speed 1 mph (ENE)    
Max Wind Speed 9 mph    
Max Gust Speed -    
Visibility 10 miles    
Events      
Averages and records for this station are not official NWS values.
T = Trace of Precipitation, MM = Missing Value Source: NWS Daily Summary

Daily Weather History Graph

Daily Weather History Graph

Search for Another Location

Airport or City:

Trip Planner

Search our weather history database for the weather conditions in past years. The results will help you decide how hot, cold, wet, or windy it might be!

Date:

Astronomy

Sep. 04, 2013 Rise Set
Actual Time 6:43 AM CDT 7:48 PM CDT
Civil Twilight 6:13 AM CDT 8:18 PM CDT
Nautical Twilight 5:37 AM CDT 8:54 PM CDT
Astronomical Twilight 4:59 AM CDT 9:31 PM CDT
Moon 5:56 AM CDT (9/4) 7:06 PM CDT (9/4)
Length of Visible Light 14h 04m
Length of Day
13h 04m
Waning Crescent, 1% of the Moon is Illuminated
Sep 4
Waning Crescent
Sep 5
New
Sep 12
First Quarter
Sep 19
Full
Sep 26
Last Quarter

Hourly Weather History & Observations

Time (CDT) Temp. Heat Index Dew Point Humidity Pressure Visibility Wind Dir Wind Speed Gust Speed Precip Events Conditions
12:13 AM 56.7 °F - 56.1 °F 98% 30.03 in 10.0 mi Calm Calm - N/A   Clear
12:33 AM 57.4 °F - 55.9 °F 95% 30.04 in 10.0 mi Calm Calm - N/A   Clear
12:53 AM 61.0 °F - 59.2 °F 94% 30.04 in 10.0 mi Calm Calm - N/A   Clear
1:14 AM 61.0 °F - 57.6 °F 88% 30.04 in 10.0 mi Calm Calm - N/A   Clear
1:33 AM 58.3 °F - 56.7 °F 94% 30.05 in 10.0 mi Calm Calm - N/A   Clear
1:54 AM 58.1 °F - 57.2 °F 97% 30.04 in 10.0 mi Calm Calm - N/A   Clear
2:13 AM 57.0 °F - 56.3 °F 97% 30.05 in 10.0 mi Calm Calm - N/A   Clear
2:33 AM 57.4 °F - 56.5 °F 97% 30.05 in 10.0 mi Calm Calm - N/A   Clear
2:54 AM 56.1 °F - 55.4 °F 97% 30.05 in 10.0 mi Calm Calm - N/A   Clear
3:13 AM 55.4 °F - 54.5 °F 97% 30.05 in 10.0 mi Calm Calm - N/A   Clear
3:34 AM 55.4 °F - 54.0 °F 95% 30.05 in 10.0 mi Calm Calm - N/A   Clear
3:53 AM 55.8 °F - 55.2 °F 98% 30.06 in 10.0 mi Calm Calm - N/A   Clear
4:13 AM 55.9 °F - 55.2 °F 97% 30.06 in 10.0 mi Calm Calm - N/A   Clear
4:34 AM 55.4 °F - 54.7 °F 97% 30.06 in 10.0 mi Calm Calm - N/A   Clear
4:53 AM 54.5 °F - 53.8 °F 97% 30.07 in 10.0 mi Calm Calm - N/A   Clear
5:13 AM 55.2 °F - 54.3 °F 97% 30.07 in 10.0 mi Calm Calm - N/A   Clear
5:33 AM 54.5 °F - 53.8 °F 97% 30.07 in 10.0 mi Calm Calm - N/A   Clear
5:53 AM 54.3 °F - 54.0 °F 99% 30.07 in 10.0 mi Calm Calm - N/A   Clear
6:13 AM 54.7 °F - 54.1 °F 98% 30.08 in 10.0 mi Calm Calm - N/A   Clear
6:33 AM 55.4 °F - 55.2 °F 99% 30.09 in 10.0 mi Calm Calm - N/A   Clear
6:53 AM 54.3 °F - 54.0 °F 99% 30.09 in 7.0 mi Calm Calm - N/A   Clear
7:14 AM 54.5 °F - 54.3 °F 99% 30.09 in 4.0 mi Calm Calm - N/A   Clear
7:34 AM 56.3 °F - 55.8 °F 98% 30.10 in 7.0 mi Calm Calm - N/A   Clear
7:51 AM 62.2 °F - 61.7 °F 98% 30.11 in 10.0 mi Calm Calm - N/A   Clear
8:13 AM 64.6 °F - 63.5 °F 96% 30.12 in 10.0 mi Calm Calm - N/A   Clear
8:33 AM 66.4 °F - 64.0 °F 92% 30.11 in 10.0 mi Calm Calm - N/A   Clear
8:52 AM 68.4 °F - 64.9 °F 89% 30.11 in 10.0 mi Calm Calm - N/A   Clear
9:05 AM 69.8 °F - 66.2 °F 88% 30.11 in 10.0 mi Calm Calm - N/A   Clear
9:24 AM 71.4 °F - 66.2 °F 84% 30.11 in 10.0 mi Calm Calm - N/A   Clear
9:34 AM 72.0 °F - 66.9 °F 84% 30.11 in 10.0 mi Calm Calm - N/A   Clear
9:54 AM 73.2 °F - 67.3 °F 82% 30.11 in 10.0 mi Calm Calm - N/A   Clear
10:11 AM 74.5 °F - 67.6 °F 79% 30.11 in 10.0 mi East 3.5 mph - N/A   Clear
10:33 AM 75.9 °F - 67.5 °F 75% - 10.0 mi Calm Calm - N/A   Clear
10:48 AM 76.8 °F - 67.5 °F 73% 30.12 in 10.0 mi Calm Calm - N/A   Clear
11:13 AM 78.1 °F - 67.3 °F 69% 30.12 in 10.0 mi ENE 3.5 mph - N/A   Clear
11:34 AM 79.3 °F - 67.6 °F 67% 30.12 in 10.0 mi Calm Calm - N/A   Clear
11:54 AM 80.2 °F 83.0 °F 68.2 °F 67% 30.12 in 10.0 mi East 3.5 mph - N/A   Clear
12:14 PM 81.1 °F 83.7 °F 67.6 °F 63% 30.12 in 10.0 mi Calm Calm - N/A   Clear
12:33 PM 81.5 °F 84.2 °F 68.0 °F 63% 30.12 in 10.0 mi Calm Calm - N/A   Clear
12:53 PM 82.2 °F 85.1 °F 68.0 °F 62% 30.12 in 10.0 mi ESE 4.6 mph - N/A   Clear
1:14 PM 83.1 °F 86.6 °F 68.7 °F 62% 30.13 in 10.0 mi East 3.5 mph - N/A   Clear
1:32 PM 84.0 °F 87.6 °F 68.9 °F 60% 30.13 in 10.0 mi East 6.9 mph - N/A   Clear
1:53 PM 83.7 °F 86.7 °F 67.8 °F 59% 30.12 in 10.0 mi East 4.6 mph - N/A   Clear
2:13 PM 84.9 °F 88.2 °F 68.2 °F 57% 30.12 in 10.0 mi ENE 6.9 mph - N/A   Clear
2:33 PM 84.9 °F 88.5 °F 68.5 °F 58% 30.11 in 10.0 mi East 4.6 mph - N/A   Scattered Clouds
2:54 PM 84.7 °F 87.9 °F 68.0 °F 57% 30.11 in 10.0 mi Calm Calm - N/A   Clear
3:13 PM 85.1 °F 88.2 °F 67.6 °F 56% 30.11 in 10.0 mi Calm Calm - N/A   Clear
3:33 PM 85.1 °F 88.2 °F 67.6 °F 56% 30.11 in 10.0 mi West 3.5 mph - N/A   Clear
3:53 PM 85.5 °F 88.8 °F 68.0 °F 56% 30.11 in 10.0 mi West 4.6 mph - N/A   Clear
4:13 PM 85.1 °F 87.7 °F 66.6 °F 54% 30.11 in 10.0 mi NNE 4.6 mph - N/A   Clear
4:34 PM 85.5 °F 88.2 °F 66.9 °F 54% 30.10 in 10.0 mi NNE 4.6 mph - N/A   Clear
4:53 PM 85.1 °F 88.2 °F 67.6 °F 56% 30.11 in 10.0 mi East 5.8 mph - N/A   Clear
5:14 PM 84.0 °F 86.8 °F 67.1 °F 57% 30.11 in 10.0 mi East 6.9 mph - N/A   Clear
5:33 PM 84.2 °F 86.6 °F 66.4 °F 55% 30.11 in 10.0 mi NNE 4.6 mph - N/A   Clear
5:54 PM 83.7 °F 86.0 °F 66.4 °F 56% 30.11 in 10.0 mi East 5.8 mph - N/A   Clear
6:14 PM 82.4 °F 84.8 °F 66.6 °F 59% 30.11 in 10.0 mi ENE 5.8 mph - N/A   Clear
6:33 PM 81.9 °F 84.1 °F 66.4 °F 59% 30.11 in 10.0 mi ENE 4.6 mph - N/A   Clear
6:54 PM 81.0 °F 83.4 °F 67.5 °F 63% 30.10 in 10.0 mi ENE 4.6 mph - N/A   Clear
7:13 PM 79.7 °F - 67.6 °F 66% 30.11 in 10.0 mi ENE 4.6 mph - N/A   Clear
7:34 PM 78.1 °F - 66.7 °F 68% 30.11 in 10.0 mi Calm Calm - N/A   Clear
7:53 PM 73.9 °F - 68.5 °F 83% 30.11 in 10.0 mi Calm Calm - N/A   Clear
8:13 PM 72.1 °F - 68.4 °F 88% 30.11 in 10.0 mi Calm Calm - N/A   Clear
8:33 PM 72.3 °F - 67.1 °F 84% 30.12 in 10.0 mi Calm Calm - N/A   Clear
8:53 PM 71.1 °F - 67.1 °F 87% 30.12 in 10.0 mi Calm Calm - N/A   Clear
9:14 PM 72.7 °F - 66.0 °F 80% 30.14 in 10.0 mi NE 9.2 mph - N/A   Clear
9:33 PM 71.4 °F - 64.6 °F 79% 30.14 in 10.0 mi NE 9.2 mph - N/A   Clear
9:53 PM 70.2 °F - 63.5 °F 79% 30.15 in 10.0 mi NE 6.9 mph - N/A   Clear
10:13 PM 69.1 °F - 63.1 °F 81% 30.15 in 10.0 mi NE 5.8 mph - N/A   Clear
10:34 PM 68.5 °F - 62.8 °F 82% 30.16 in 10.0 mi NE 8.1 mph - N/A   Clear
10:53 PM 68.5 °F - 61.2 °F 77% 30.16 in 10.0 mi ENE 6.9 mph - N/A   Clear
11:13 PM 67.8 °F - 60.6 °F 78% 30.16 in 10.0 mi ENE 5.8 mph - N/A   Clear
11:33 PM 66.9 °F - 60.3 °F 79% 30.17 in 10.0 mi ENE 5.8 mph - N/A   Clear
11:53 PM 65.8 °F - 60.3 °F 82% 30.17 in 10.0 mi ENE 6.9 mph - N/A   Clear